Temp
-8 -8 -8 -8 -8 -8 -7 -7 -7 -7 -7 -7 -6 -6 -6 -6 -6 -7 -7 -7 -7 -7 -7 -8 -8 -7 -8 -7 -7 -8 -9 -8 -7 -7 -8 -9 -9 -9 -8 -8 -8 -8 -8 -8 -8
-8 -8 -8 -8 -8 -8 -8 -8 -8 -7 -7 -7 -7 -6 -6 -6 -7 -7 -8 -7 -8 -8 -8 -8 -8 -9 -8 -8 -8 -8 -8 -8 -7 -7 -8 -9 -9 -8 -8 -8 -8 -8 -8 -8 -8
-8 -8 -8 -7 -8 -8 -8 -8 -8 -8 -8 -8 -7 -7 -6 -6 -7 -8 -8 -8 -9 -9 -8 -8 -9 -9 -8 -8 -8 -8 -8 -8 -7 -7 -8 -9 -9 -9 -8 -8 -8 -8 -8 -8 -8
-8 -8 -8 -8 -8 -8 -8 -8 -8 -8 -8 -8 -8 -7 -7 -7 -7 -8 -9 -9 -10 -10 -8 -10 -9 -9 -9 -9 -9 -9 -8 -9 -8 -8 -9 -9 -10 -10 -9 -9 -8 -8 -8 -8 -8
-8 -8 -8 -8 -8 -8 -8 -8 -9 -8 -8 -8 -8 -7 -7 -7 -8 -9 -10 -10 -10 -10 -9 -9 -9 -9 -9 -8 -9 -8 -9 -9 -9 -9 -9 -9 -10 -9 -9 -9 -9 -9 -9 -9 -8
-8 -8 -8 -8 -8 -8 -8 -8 -9 -9 -9 -8 -8 -8 -7 -8 -8 -9 -10 -11 -11 -10 -10 -10 -10 -10 -9 -8 -10 -9 -9 -9 -9 -9 -8 -9 -9 -9 -9 -9 -9 -9 -9 -9 -9
-8 -8 -8 -7 -8 -8 -8 -9 -9 -9 -9 -9 -8 -8 -8 -8 -9 -10 -10 -11 -11 -10 -10 -10 -10 -10 -10 -10 -10 -10 -10 -10 -9 -9 -9 -10 -10 -10 -10 -10 -10 -10 -8 -9 -9
-8 -8 -8 -8 -8 -8 -8 -9 -9 -9 -9 -9 -8 -8 -8 -8 -9 -9 -11 -11 -10 -10 -10 -10 -10 -9 -10 -11 -11 -10 -11 -11 -10 -10 -10 -9 -10 -9 -10 -10 -10 -9 -9 -10 -10
-8 -8 -8 -8 -8 -8 -8 -9 -9 -9 -9 -9 -9 -9 -9 -9 -10 -10 -11 -10 -10 -10 -11 -10 -10 -10 -11 -11 -10 -10 -11 -11 -11 -11 -10 -9 -9 -9 -9 -9 -10 -10 -10 -10 -11
-8 -8 -8 -8 -8 -8 -8 -9 -9 -9 -9 -8 -9 -9 -10 -10 -10 -11 -11 -10 -10 -11 -11 -11 -11 -11 -11 -11 -11 -11 -10 -11 -11 -11 -11 -10 -10 -9 -10 -10 -10 -10 -11 -10 -11
-8 -8 -8 -8 -8 -8 -9 -9 -9 -9 -9 -9 -10 -9 -10 -11 -11 -11 -11 -11 -11 -11 -11 -11 -11 -11 -11 -10 -9 -10 -10 -10 -11 -11 -11 -11 -11 -10 -10 -11 -10 -11 -10 -11 -11
-8 -8 -8 -8 -8 -9 -9 -9 -9 -9 -9 -9 -9 -9 -9 -9 -10 -11 -11 -11 -11 -11 -11 -11 -11 -11 -11 -11 -11 -11 -10 -10 -11 -11 -11 -11 -11 -10 -11 -10 -11 -11 -11 -11 -11
-8 -8 -8 -8 -8 -9 -9 -9 -10 -10 -10 -10 -10 -10 -10 -10 -10 -11 -11 -11 -11 -12 -11 -11 -11 -11 -11 -10 -11 -11 -10 -10 -11 -11 -11 -11 -11 -10 -10 -10 -11 -12 -11 -12 -12
-8 -8 -8 -8 -8 -8 -9 -9 -10 -10 -10 -11 -11 -11 -10 -10 -10 -12 -11 -11 -11 -11 -11 -11 -11 -11 -11 -11 -11 -11 -11 -11 -11 -11 -11 -11 -10 -10 -10 -10 -11 -11 -12 -12 -12
-8 -8 -8 -8 -8 -9 -9 -10 -10 -10 -10 -11 -12 -12 -11 -11 -12 -11 -11 -11 -11 -11 -11 -11 -11 -11 -11 -11 -11 -11 -12 -11 -11 -10 -10 -11 -11 -10 -9 -10 -10 -11 -11 -12 -12
-8 -8 -8 -8 -8 -9 -9 -10 -10 -10 -11 -11 -12 -12 -12 -11 -11 -12 -11 -11 -11 -11 -12 -11 -11 -11 -11 -11 -12 -11 -11 -11 -10 -10 -10 -10 -10 -9 -9 -10 -10 -11 -12 -12 -12
-8 -8 -8 -8 -9 -9 -9 -10 -10 -10 -10 -11 -11 -12 -12 -12 -12 -12 -12 -11 -11 -11 -11 -11 -11 -12 -11 -12 -11 -11 -11 -10 -10 -10 -10 -10 -9 -10 -10 -10 -11 -11 -11 -12 -12
-8 -8 -8 -8 -8 -9 -10 -10 -10 -10 -10 -10 -11 -11 -12 -12 -12 -12 -12 -12 -12 -12 -12 -11 -11 -11 -11 -11 -11 -11 -11 -11 -10 -10 -10 -10 -10 -10 -10 -10 -11 -11 -12 -12 -13
-8 -8 -8 -8 -9 -9 -10 -10 -10 -11 -11 -11 -11 -11 -11 -12 -12 -12 -12 -12 -12 -12 -11 -11 -11 -11 -11 -12 -11 -11 -11 -11 -10 -10 -10 -10 -10 -10 -11 -11 -11 -11 -12 -12 -12
-8 -8 -8 -9 -9 -10 -10 -10 -10 -10 -11 -11 -11 -11 -10 -11 -11 -12 -12 -12 -12 -12 -12 -11 -10 -11 -11 -11 -11 -11 -10 -10 -10 -10 -10 -10 -10 -10 -11 -11 -12 -11 -11 -12 -12
-8 -8 -8 -8 -10 -10 -11 -11 -11 -11 -11 -11 -11 -11 -11 -11 -11 -11 -11 -12 -12 -12 -12 -11 -11 -11 -11 -11 -11 -10 -10 -10 -10 -10 -11 -11 -10 -11 -11 -12 -12 -12 -12 -12 -12
-8 -8 -9 -9 -10 -10 -11 -11 -11 -11 -11 -11 -12 -11 -12 -12 -11 -11 -11 -11 -12 -12 -12 -12 -11 -10 -10 -11 -11 -11 -10 -10 -10 -11 -11 -11 -11 -11 -12 -12 -12 -12 -13 -13 -14
-8 -8 -9 -9 -9 -10 -11 -11 -11 -11 -11 -11 -12 -11 -12 -12 -11 -12 -12 -12 -11 -11 -11 -11 -11 -11 -11 -12 -11 -10 -10 -10 -10 -11 -11 -11 -11 -12 -12 -12 -12 -13 -13 -13 -14
-9 -9 -9 -9 -9 -10 -10 -11 -11 -11 -11 -12 -11 -11 -11 -12 -12 -12 -11 -11 -11 -11 -11 -11 -11 -11 -11 -11 -10 -10 -11 -11 -11 -11 -11 -12 -12 -12 -13 -13 -14 -13 -14 -14 -15
-9 -9 -10 -10 -10 -10 -11 -11 -10 -10 -11 -11 -11 -12 -12 -12 -11 -12 -12 -12 -12 -12 -11 -12 -12 -12 -12 -11 -11 -11 -11 -11 -11 -12 -12 -12 -13 -13 -14 -14 -14 -14 -15 -15 -15
-9 -9 -10 -10 -10 -11 -11 -11 -11 -11 -12 -11 -11 -11 -11 -11 -11 -10 -12 -12 -12 -11 -11 -11 -11 -12 -12 -12 -11 -11 -11 -12 -12 -11 -12 -13 -13 -13 -13 -13 -14 -14 -15 -15 -16
-10 -10 -10 -10 -10 -11 -11 -11 -11 -12 -11 -12 -12 -12 -12 -11 -11 -11 -12 -12 -12 -11 -11 -11 -12 -11 -12 -12 -12 -12 -12 -12 -12 -12 -12 -13 -12 -13 -13 -13 -14 -14 -15 -16 -17
Height
5892 5892 5893 5893 5892 5892 5891 5892 5892 5893 5893 5892 5892 5891 5890 5889 5888 5887 5887 5889 5890 5891 5893 5892 5892 5893 5894 5895 5895 5896 5897 5897 5897 5893 5892 5891 5891 5891 5890 5889 5888 5888 5887 5885 5882
5891 5890 5890 5890 5890 5890 5890 5889 5890 5891 5891 5891 5891 5890 5889 5888 5888 5887 5888 5889 5890 5891 5892 5891 5893 5894 5896 5896 5895 5897 5896 5896 5895 5893 5891 5890 5891 5890 5888 5887 5886 5885 5885 5884 5881
5890 5888 5887 5887 5887 5887 5887 5887 5888 5888 5889 5889 5889 5888 5888 5888 5887 5887 5888 5889 5890 5889 5892 5894 5895 5896 5896 5896 5895 5894 5896 5893 5894 5893 5891 5890 5890 5888 5888 5887 5884 5882 5881 5881 5879
5887 5886 5885 5884 5883 5884 5884 5884 5885 5886 5887 5887 5887 5886 5886 5887 5889 5887 5888 5888 5889 5890 5893 5895 5897 5898 5897 5896 5896 5896 5895 5893 5893 5889 5891 5891 5889 5888 5887 5885 5883 5881 5879 5877 5875
5885 5883 5882 5882 5881 5881 5881 5881 5882 5884 5885 5886 5886 5886 5885 5887 5887 5888 5888 5888 5889 5889 5897 5896 5898 5898 5897 5896 5895 5894 5894 5893 5892 5891 5890 5890 5888 5886 5885 5883 5881 5878 5876 5874 5872
5884 5882 5881 5879 5879 5878 5879 5878 5879 5881 5882 5884 5884 5884 5885 5887 5887 5888 5888 5888 5890 5889 5896 5897 5897 5897 5896 5896 5897 5897 5896 5893 5892 5889 5887 5888 5887 5885 5882 5881 5878 5876 5872 5868 5866
5883 5881 5880 5878 5877 5877 5877 5877 5878 5879 5880 5881 5883 5883 5884 5886 5886 5887 5887 5888 5890 5892 5895 5896 5896 5897 5895 5895 5895 5895 5893 5888 5889 5890 5887 5889 5887 5883 5881 5879 5875 5870 5865 5862 5860
5882 5880 5879 5878 5877 5876 5875 5875 5876 5877 5878 5879 5881 5881 5882 5885 5886 5887 5888 5889 5891 5892 5895 5897 5897 5896 5895 5895 5894 5893 5891 5889 5889 5888 5889 5889 5885 5881 5879 5875 5872 5869 5864 5860 5856
5881 5879 5878 5877 5876 5875 5874 5874 5875 5876 5877 5877 5878 5880 5882 5884 5886 5887 5887 5888 5890 5892 5896 5897 5898 5896 5895 5895 5894 5894 5892 5892 5888 5886 5887 5886 5883 5878 5876 5873 5869 5867 5865 5861 5855
5880 5878 5877 5876 5875 5874 5873 5873 5874 5874 5876 5876 5876 5879 5881 5882 5883 5885 5885 5889 5891 5892 5894 5896 5897 5895 5894 5893 5891 5888 5888 5887 5886 5884 5882 5881 5878 5876 5874 5870 5867 5865 5861 5856 5853
5878 5877 5876 5875 5873 5872 5871 5871 5874 5874 5874 5876 5876 5876 5876 5876 5878 5882 5884 5888 5889 5891 5892 5895 5895 5894 5893 5890 5890 5887 5886 5884 5883 5880 5878 5875 5873 5871 5871 5865 5863 5859 5854 5850 5846
5877 5876 5875 5873 5872 5871 5869 5869 5871 5873 5873 5872 5874 5875 5873 5873 5876 5878 5881 5885 5886 5889 5890 5894 5893 5892 5889 5888 5886 5885 5883 5883 5881 5879 5876 5873 5870 5867 5863 5860 5857 5855 5851 5848 5843
5876 5875 5873 5872 5870 5869 5868 5870 5871 5872 5872 5872 5873 5872 5871 5873 5874 5877 5880 5884 5886 5889 5890 5891 5891 5890 5887 5886 5882 5882 5878 5877 5876 5873 5870 5866 5863 5862 5857 5854 5852 5849 5847 5843 5839
5874 5873 5872 5870 5870 5868 5869 5870 5871 5871 5871 5871 5871 5871 5872 5873 5874 5876 5878 5881 5882 5887 5887 5889 5889 5888 5886 5884 5882 5878 5876 5876 5871 5869 5864 5860 5855 5858 5853 5850 5846 5843 5840 5836 5832
5871 5870 5869 5868 5868 5868 5869 5869 5870 5870 5869 5869 5868 5869 5871 5875 5875 5877 5878 5878 5880 5884 5885 5887 5886 5884 5883 5881 5878 5877 5875 5874 5873 5868 5861 5858 5851 5850 5848 5844 5841 5838 5836 5833 5827
5869 5867 5867 5867 5866 5867 5867 5869 5870 5870 5867 5868 5866 5866 5868 5872 5874 5875 5876 5877 5878 5879 5879 5882 5882 5881 5880 5878 5876 5874 5872 5870 5868 5864 5860 5854 5849 5848 5843 5840 5837 5835 5831 5825 5821
5866 5865 5865 5865 5865 5865 5866 5867 5869 5867 5868 5869 5867 5867 5868 5869 5871 5872 5873 5873 5874 5875 5878 5878 5877 5876 5876 5875 5874 5871 5868 5864 5862 5859 5854 5850 5845 5843 5838 5835 5832 5828 5823 5818 5813
5864 5864 5863 5863 5863 5864 5864 5866 5866 5866 5867 5867 5868 5868 5868 5867 5869 5869 5870 5870 5871 5872 5873 5873 5874 5873 5873 5872 5869 5867 5864 5860 5851 5850 5847 5844 5839 5837 5834 5830 5826 5821 5816 5811 5807
5862 5861 5861 5861 5861 5862 5864 5865 5864 5865 5864 5863 5865 5866 5866 5864 5864 5865 5867 5867 5867 5870 5871 5870 5871 5870 5869 5866 5864 5860 5857 5853 5848 5844 5838 5837 5833 5831 5827 5823 5818 5813 5808 5804 5800
5860 5859 5860 5859 5858 5860 5862 5862 5861 5861 5860 5861 5861 5859 5860 5861 5861 5862 5863 5864 5865 5865 5867 5866 5866 5866 5864 5861 5860 5856 5851 5846 5844 5838 5832 5826 5825 5824 5820 5815 5810 5806 5802 5798 5794
5857 5857 5857 5856 5856 5857 5857 5857 5857 5856 5858 5858 5856 5849 5853 5856 5857 5858 5861 5862 5861 5862 5861 5862 5862 5860 5858 5856 5854 5852 5845 5840 5838 5834 5827 5821 5821 5818 5814 5809 5805 5800 5796 5792 5786
5855 5855 5854 5854 5854 5853 5853 5852 5853 5853 5853 5853 5852 5846 5847 5854 5855 5857 5858 5858 5858 5857 5856 5856 5854 5852 5848 5849 5847 5845 5841 5836 5832 5830 5825 5820 5817 5813 5808 5804 5799 5794 5789 5784 5777
5852 5851 5852 5852 5851 5850 5850 5850 5851 5849 5848 5850 5847 5845 5845 5847 5852 5855 5854 5855 5855 5853 5850 5850 5848 5846 5845 5844 5841 5838 5834 5830 5826 5823 5821 5817 5813 5806 5802 5797 5792 5787 5782 5776 5770
5849 5850 5850 5849 5848 5847 5847 5847 5846 5845 5845 5846 5845 5843 5844 5845 5848 5851 5849 5848 5849 5847 5845 5843 5841 5840 5838 5836 5834 5832 5829 5823 5820 5817 5814 5811 5805 5800 5796 5791 5787 5781 5774 5769 5763
5847 5847 5847 5846 5846 5846 5846 5846 5844 5841 5841 5841 5842 5844 5843 5842 5843 5844 5845 5843 5843 5842 5841 5840 5838 5836 5833 5831 5827 5825 5822 5819 5815 5812 5809 5805 5799 5794 5790 5785 5781 5775 5769 5762 5755
5844 5844 5845 5843 5844 5844 5843 5843 5842 5840 5839 5838 5840 5839 5839 5838 5838 5835 5839 5841 5841 5840 5838 5836 5834 5832 5828 5826 5822 5820 5817 5814 5810 5807 5803 5799 5794 5790 5785 5781 5774 5768 5760 5752 5744
5841 5840 5842 5841 5840 5840 5839 5838 5837 5836 5837 5837 5838 5836 5830 5832 5835 5837 5835 5837 5837 5835 5832 5831 5829 5827 5824 5823 5820 5817 5814 5810 5806 5803 5798 5794 5791 5785 5780 5773 5767 5759 5751 5742 5734
Wind_Speed
11 13 12 12 13 13 13 13 13 12 13 13 13 12 12 4 5 8 10 12 11 10 11 13 9 6 7 6 3 2 8 6 11 12 13 14 13 12 9 8 8 10 13 18 19
3 7 15 17 18 18 18 17 15 13 12 12 14 13 9 5 8 11 10 12 12 12 9 13 10 7 9 6 3 3 5 6 9 11 15 18 17 17 19 16 14 12 12 13 16
7 8 8 10 19 20 20 19 18 15 12 9 8 8 8 6 11 11 12 14 15 13 10 8 10 8 14 5 6 5 12 11 4 11 15 17 20 22 20 15 13 12 15 16 15
10 9 10 9 11 15 19 18 18 14 8 4 4 7 8 7 11 13 17 19 15 12 9 4 5 8 10 8 7 8 9 10 5 11 17 16 21 20 22 21 16 14 15 15 15
9 8 7 9 11 12 14 16 19 14 9 8 7 6 8 9 12 16 22 21 17 14 10 4 5 4 6 12 9 10 11 12 11 15 15 12 20 21 20 24 18 17 17 17 17
9 6 7 9 10 11 10 8 10 12 13 10 7 6 8 10 14 21 26 23 17 14 13 3 6 3 7 10 10 11 16 14 14 19 12 14 20 20 18 23 20 17 21 22 20
8 6 7 8 6 7 9 6 5 9 10 10 9 9 9 14 18 25 27 24 21 16 9 9 2 5 8 6 8 14 19 23 22 11 11 20 22 19 19 22 19 24 22 17 18
7 7 7 7 7 8 9 7 7 8 9 11 11 11 10 13 17 23 29 25 21 20 12 4 7 3 7 5 7 11 18 20 18 15 22 21 19 23 21 21 20 16 14 14 16
7 8 8 8 8 9 6 6 7 8 7 9 12 11 10 11 17 19 26 28 25 21 12 6 6 6 9 3 6 9 13 13 18 20 18 20 25 24 15 18 19 19 21 26 21
8 9 8 8 9 10 7 6 6 7 6 8 7 10 10 13 16 20 25 23 21 16 12 11 7 5 3 1 2 5 9 13 18 20 23 27 29 25 16 17 15 16 28 24 27
8 7 9 8 8 9 7 7 9 7 7 10 7 10 17 21 21 18 23 24 22 18 16 15 9 6 5 8 8 10 11 12 12 22 27 29 34 32 28 20 20 30 26 38 29
7 7 9 7 7 8 7 8 8 7 5 6 14 16 19 23 22 22 23 22 20 20 23 19 17 9 9 9 16 22 10 17 18 22 28 33 38 42 38 30 26 26 30 34 22
8 8 9 7 7 10 10 6 4 3 7 3 9 8 18 18 19 20 18 19 17 22 18 16 12 11 16 14 18 18 17 25 34 36 39 42 41 37 36 33 30 27 31 32 26
9 9 10 9 9 10 6 3 2 5 5 4 1 4 3 9 15 17 14 19 23 21 18 19 14 16 16 15 18 20 23 26 34 36 37 37 38 35 37 34 32 32 32 36 33
10 11 11 10 10 7 6 3 2 6 8 10 8 6 5 9 14 10 18 22 24 24 22 23 20 19 17 20 20 21 24 28 31 33 32 36 41 39 32 29 32 34 36 32 29
11 11 9 8 8 7 6 4 3 7 9 10 9 14 13 13 11 20 17 18 22 28 23 21 20 22 21 20 22 26 31 32 32 30 34 32 34 31 27 27 28 29 30 31 34
8 9 7 8 7 7 7 5 6 10 8 11 13 14 12 14 15 17 21 20 24 20 22 15 12 11 17 23 25 27 30 37 32 31 31 31 36 29 28 30 31 32 31 30 32
8 10 8 9 9 7 8 7 6 9 9 7 16 12 13 11 13 16 20 20 17 19 21 19 15 16 20 25 30 27 30 33 41 38 35 34 36 30 29 31 32 31 29 29 35
11 11 9 8 9 8 8 7 9 9 13 15 11 12 16 15 17 21 21 23 21 22 22 23 21 20 25 31 31 32 31 35 38 38 38 35 33 33 34 33 31 29 29 31 37
12 13 11 10 8 7 6 7 9 12 17 16 13 17 24 23 20 20 18 20 21 23 23 26 25 26 34 24 25 33 34 35 34 35 39 39 37 35 34 32 29 30 31 33 37
11 13 13 10 8 10 11 11 12 17 16 14 17 9 28 30 22 22 22 17 20 21 25 25 28 34 30 28 29 30 32 31 31 33 37 41 39 35 33 28 29 30 32 35 37
11 11 12 10 10 13 17 19 17 19 17 17 16 1 18 23 24 23 22 23 22 25 28 31 35 28 28 29 29 32 29 28 30 30 32 34 35 31 29 29 31 34 35 36 37
11 13 12 13 12 15 20 20 17 19 20 17 10 2 8 5 24 23 23 25 26 29 32 34 35 38 31 30 30 30 28 27 28 30 29 29 31 32 30 29 33 37 39 39 40
14 14 13 14 14 16 19 19 20 22 21 17 10 3 5 4 18 23 19 23 22 23 20 23 26 25 25 22 27 27 23 24 27 28 28 30 33 27 26 26 36 38 39 41 40
13 14 14 14 14 14 17 21 23 24 21 19 15 11 13 9 9 13 13 13 17 14 17 19 22 20 22 21 21 21 22 21 23 25 28 29 33 29 27 33 39 39 40 40 41
14 16 16 16 13 13 13 17 24 25 26 25 21 21 16 15 13 9 8 11 12 12 15 17 18 18 24 20 24 24 24 21 22 26 24 31 34 28 28 41 38 40 43 44 44
16 17 17 16 16 17 19 19 22 25 26 24 21 23 28 21 15 19 8 13 13 14 17 18 20 16 18 14 18 19 21 22 23 25 27 29 32 36 37 38 41 43 44 45 46
Wind_Direction
224 221 227 235 245 256 263 265 269 278 281 276 285 294 315 281 200 188 193 192 183 161 136 133 135 103 44 25 57 185 165 62 29 55 61 39 12 359 351 353 346 331 318 320 319
293 255 240 237 248 256 264 272 277 283 281 282 276 280 286 249 193 192 195 195 182 160 148 160 121 50 50 41 44 72 151 353 26 52 41 28 14 19 9 356 338 327 325 323 319
307 286 276 262 240 250 260 267 271 282 295 276 265 252 251 232 206 194 192 184 170 178 174 130 87 67 49 66 52 71 6 320 353 33 35 28 9 12 4 -0 346 336 328 326 325
320 290 276 274 267 254 253 259 260 270 265 223 260 241 236 215 207 194 184 180 176 189 182 105 98 86 42 24 17 4 351 337 347 24 17 22 3 4 3 355 335 327 321 313 315
333 319 300 283 272 271 261 260 253 249 238 249 248 251 233 204 192 190 175 181 179 205 139 159 88 56 22 31 16 6 9 3 339 333 353 12 355 342 341 345 328 316 321 318 316
336 334 320 295 277 273 266 267 238 228 236 245 236 251 231 196 187 191 184 184 188 208 166 126 108 22 337 13 29 15 16 14 358 335 353 1 346 319 329 334 329 326 327 314 316
335 338 326 322 305 280 276 235 226 226 225 219 224 235 216 196 191 192 194 194 198 204 191 193 355 316 45 55 352 8 12 3 355 340 19 338 338 336 325 314 310 319 328 319 309
316 323 322 320 318 309 287 232 243 230 215 222 232 238 213 202 195 197 198 203 200 201 190 220 272 251 95 66 4 2 22 359 349 348 342 328 328 327 318 311 298 310 326 326 319
313 316 305 307 308 310 291 223 234 210 215 231 235 234 210 201 208 210 201 204 204 207 197 242 229 150 75 75 6 2 352 343 335 333 328 330 329 324 328 319 320 318 328 323 309
312 316 313 299 296 302 289 226 219 222 222 224 213 210 189 212 218 200 209 214 203 211 204 197 159 103 147 268 227 280 308 322 324 327 332 335 332 336 330 330 343 333 324 316 322
312 322 326 314 292 295 277 223 212 211 232 238 225 195 203 210 218 206 206 207 204 200 214 187 159 171 224 252 308 309 300 309 319 324 326 331 326 333 321 322 318 320 328 336 328
301 310 330 306 280 283 261 235 206 209 234 222 242 282 269 220 221 206 204 201 195 189 218 194 214 237 253 261 283 302 294 310 311 312 314 318 315 318 318 322 322 322 313 323 314
296 289 319 290 260 256 256 262 207 260 270 257 267 264 234 225 212 202 208 193 195 194 208 192 216 235 259 261 304 316 327 333 330 321 317 312 309 313 314 317 312 314 309 317 307
295 291 288 290 270 275 299 301 162 284 238 216 19 344 269 222 210 200 201 201 189 193 200 196 225 241 257 278 307 315 330 319 320 320 318 308 306 311 310 307 306 311 311 314 313
295 294 280 291 270 281 255 226 239 260 200 177 173 215 247 169 180 205 198 192 192 193 219 214 221 241 264 275 296 308 300 294 313 310 314 311 302 307 308 308 308 306 306 307 309
295 294 278 277 262 264 256 220 240 234 223 206 190 206 214 202 207 182 192 191 188 205 220 234 240 238 261 283 293 291 292 295 305 305 306 302 298 307 313 314 314 310 309 308 314
291 298 273 278 260 249 225 197 233 226 261 223 193 190 193 221 191 191 202 199 204 218 224 222 213 261 266 282 283 293 294 297 302 302 303 300 304 309 314 316 314 311 313 316 316
272 289 293 274 267 242 223 208 225 251 255 251 215 222 201 211 207 207 216 232 235 257 248 240 221 245 266 278 280 286 294 301 303 306 306 307 307 312 314 312 316 320 321 320 318
263 279 288 295 258 233 211 236 229 237 246 244 265 271 233 219 220 223 233 235 248 249 254 261 252 261 269 275 278 281 296 298 297 302 307 306 308 315 319 319 324 321 318 316 314
266 273 291 287 256 214 211 226 229 224 240 267 282 260 224 225 218 210 224 238 254 259 254 263 269 268 275 278 287 291 295 292 298 304 306 310 313 317 316 321 317 314 315 316 314
278 271 278 282 245 200 202 215 231 239 262 282 305 298 220 222 213 212 222 241 251 269 273 276 281 284 283 280 285 294 294 292 303 304 303 306 313 314 314 311 311 313 314 317 318
277 273 265 263 232 212 218 225 235 260 275 280 284 16 196 224 216 220 237 244 254 268 280 285 287 297 280 275 289 296 296 298 299 297 298 303 306 308 311 308 310 312 315 318 322
272 267 272 271 242 226 234 242 261 268 281 300 266 261 169 258 230 238 250 255 265 273 268 273 282 277 285 281 285 289 294 299 301 302 303 309 318 312 306 314 318 316 314 319 322
272 280 284 275 269 253 248 245 255 261 275 296 319 292 211 162 207 249 238 250 258 272 271 274 269 288 290 279 287 295 299 303 302 308 316 323 322 312 300 311 323 315 315 316 314
272 279 280 282 275 269 269 265 269 279 283 285 304 287 272 266 243 235 251 293 303 304 292 284 285 287 279 297 301 309 312 311 316 316 311 327 320 318 291 296 319 313 310 311 311
275 277 269 272 270 268 274 266 267 273 278 284 293 292 290 269 249 249 281 277 285 285 283 291 292 282 273 288 308 314 309 310 316 322 314 313 314 317 309 313 314 311 314 315 314
278 283 278 276 287 290 292 291 281 268 268 269 277 292 298 249 249 279 260 287 296 305 310 296 295 287 298 315 314 319 313 308 310 310 307 309 309 313 313 312 312 312 314 316 317